CZ-4C DEB, 43263

Orbit data source: Space-Track

CZ-4C DEB, 43263 is space debris in SSO originally from a launch on Sat, 31 Mar 2018 UTC launched from the Taiyaun Space Center, China (TSC). Debris objects in space refer to the collection of defunct objects orbiting the Earth. Examples of debris include non-operational satellites, rocket bodies, and fragments generated from explosions, collisions, or faulty payload assembly.

Loading next visibility...
Identifier
43263, 2018-031E
Orbit
SSO
Country
Flag of CNCN / PRC
Related business
Manufacturer
Unknown
Mission
Spacecraft
Bus & Motor
Unknown
Mass
Unknown
Launch date (UTC)
2018-03-31 (8 years ago)
Launch vehicle
Unknown
Launch site
Taiyaun Space Center, China (TSC)
Object type
Payload
Rocket body
Debris
Shape & HBR
Unknown shape, 0.1 m
Radar Cross Section
Medium (>0.1 m² and <1 m²)

Expand to show TLE details & history
Last TLE update: 3 days ago

TLE from 3 days ago
0 CZ-4C DEB
1 43263U 18031E   26170.45674669  .00001885  00000-0  24871-3 0  9991
2 43263  97.6913 174.2144 0037471 334.9278  25.0114 14.80722285441704
Epoch: 2026-06-19T10:57Z
TLE epoch observation values (Epoch: 2026-06-19T10:57:42.914Z)
Latitude
-0.00001°
Longitude
102.10014°
Altitude
606.299 km
Speed
7.569 km/s
True Right ascension
11h 36m 51s
True Declination
0° 00' 00"
Sunlit
Object was in daylight at epoch
Visualization orbit readout
Latitude
Unknown
Longitude
Unknown
Altitude
Unknown
Speed
Unknown
Apparent Right ascension
Unknown
Apparent Declination
Unknown
Sunlit
N/A
Visualization observer readout
Local Sidereal Time
21:36:19
Azimuth
Unknown
Elevation
Unknown
Doppler factor
Unknown
Orbital elements
Apogee altitude
650.314 km
Perigee altitude
597.838 km
Semi-major axis
7,002.213 km
Eccentricity
0.00375
Inclination
97.6913°
RAAN
174.2144°
Arg. of periapsis
334.9278°
True anomaly
25.19372°
Mean anomaly
25.0114°
Eccentric anomaly
25.10248°
Mean motion
3.70416 °/min
Orbital period
97.19 mins
BSTAR
0.00024871
Loading maneuver chart data...
Computing Atmospheric mass density...
Loading historical data...
Loading historical data...
Loading historical data...
Loading historical data...
Loading historical data...
Loading historical data...
Loading historical data...

Documentation

Showing up to 5 results
|